Location: Unspecified
(0.0000°N, 0.0000°E)
Time: 17:56:15
(UTC+00:00)

STARLINK 1045 - Pass Details

Date: 22 January 2020
Orbit: 548 x 551 km, 53.0° (Epoch: 17 January)

Event Time Altitude Azimuth Distance (km) Brightness Sun altitude
Rises 04:25:20 0° 201° (SSW) 2,712 7.2 -24.8°
Reaches altitude 10° 04:27:41 10° 193° (SSW) 1,817 6.3 -24.3°
Maximum altitude 04:31:32 39° 124° (SE) 833 5.0 -23.4°
Drops below altitude 10° 04:35:23 10° 55° (NE) 1,809 6.7 -22.5°
Sets 04:37:42 0° 47° (NE) 2,699 7.5 -22.0°
